User: anonymous   Login
Location: Prague
(50.0830°N, 14.4670°E)
Time: 00:38:29
(UTC+02:00)
Language:

FO-29 - Orbit

View from above orbital plane
View from above orbital plane
View from above satellite
View from above satellite

Ground track
Ground track

The orbit data is extracted from the following two-line orbital elements,

1 24278U 96046B   24151.37347935  .00000022  00000-0  60673-4 0  9992
2 24278  98.5800  88.3641 0349284 234.2943 122.5230 13.53189393372026
Epoch (UTC): 30 May 2024 08:57:48
Eccentricity: 0.0349284
inclination: 98.5800°
perigee height: 801 km
apogee height: 1320 km
right ascension of ascending node: 88.3641°
argument of perigee: 234.2943°
revolutions per day: 13.53189393
mean anomaly at epoch: 122.5230°
orbit number at epoch: 37202

The dashed part of the orbit path shows where the satellite is in the earth's shadow,  

DLR